Find Starlink 34898

NORAD ID: 65895 Int'l Des: 2025-224 Owner: SPXS Country: US Constellation: starlink operational
LEOCIRCULAR

当前视图

正在加载3D地球...

关于 Starlink 34898

正在加载描述...

即将过境

Passes for default location (London). Set your location on the main map for personalized predictions.

高度历史

Loading altitude history...

两行轨道根数

1 65895U 25224P 26150.81800417 .00029104 00000-0 86931-3 0 9997
2 65895 53.1601 348.7939 0000814 62.4982 297.6103 15.34394547 37461
Epoch: May 30, 2026 • Age: 19 hours

当前状态

高度 464.7 km
速度 7.63 km/s
星下点 -7.74°S, 125°W
发射日期 Oct 7, 2025
运行时间 0.6 years
类型 internet

技术详情

分类 Payload
质量 575.00 kg
干质量 530.00 kg
总质量 575.00 kg
长度 0.30 m
直径 4.10 m
跨度 29.00 m
形状 Box + pan
制造商 SPXS
平台类型 Starlink V2MO
阶段状态 In Orbit
所有者/国家 SPXS/US

Most Searched